Simultaneous Nadir Overpasses (SNOs) Predictions

Prediction of SNOs between AURA and LANDSAT-8 Satellite Orbit:

Table of predicted SNOs for the next 14.0 days since TLE Epoch: 11/30/2024
Index Date (AURA) Time (AURA) Lat,Lon (AURA) SZA (AURA ) Date (LANDSAT-8) Time (LANDSAT-8) Lat,Lon (LANDSAT-8) SZA (LANDSAT-8 ) Distance(km) Time Diff (sec)
1 12/01/2024 18:43:33 72.22, -98.08 94.15 12/01/2024 18:42:29 72.19,-101.00 94.06 99.06 64
2 12/01/2024 19:32:59 -72.52, 69.03 85.56 12/01/2024 19:31:51 -72.50, 67.20 85.62 60.98 68
3 12/01/2024 20:22:23 72.61,-123.50 94.54 12/01/2024 20:21:14 72.62,-124.93 94.51 47.56 69
4 12/01/2024 21:11:49 -72.91, 43.59 85.17 12/01/2024 21:10:37 -72.87, 43.19 85.23 13.88 72
5 12/01/2024 22:01:13 73.01,-148.94 94.93 12/01/2024 22:00:00 72.99,-148.93 94.91 1.91 73
6 12/01/2024 22:50:33 -72.98, 18.77 85.09 12/01/2024 22:49:28 -72.98, 18.68 85.11 2.92 65
7 12/01/2024 23:39:55 72.97,-173.55 94.91 12/01/2024 23:38:53 72.99,-173.64 94.92 3.35 62
8 12/02/2024 00:29:16 -73.01, -5.95 85.06 12/02/2024 00:28:20 -73.03, -5.93 85.04 2.85 56
9 12/02/2024 01:18:38 73.00, 161.72 94.94 12/02/2024 01:17:46 72.99, 161.64 94.93 2.73 52
10 12/02/2024 02:07:59 -73.03, -30.67 85.03 12/02/2024 02:07:13 -73.03, -30.65 85.03 1.03 46
11 12/02/2024 02:57:21 73.02, 137.00 94.97 12/02/2024 02:56:38 73.05, 137.03 95.00 3.23 43
12 12/02/2024 03:46:42 -73.05, -55.39 85.00 12/02/2024 03:46:06 -73.03, -55.36 85.02 2.06 36
13 12/02/2024 04:36:04 73.04, 112.28 95.01 12/02/2024 04:35:31 73.05, 112.31 95.01 1.32 33
14 12/02/2024 05:25:24 -73.02, -80.01 85.02 12/02/2024 05:24:59 -73.04, -80.08 85.00 2.84 25
15 12/02/2024 06:14:47 73.07, 87.56 95.04 12/02/2024 06:14:24 73.05, 87.60 95.02 1.93 23
16 12/02/2024 07:04:07 -73.04,-104.73 84.98 12/02/2024 07:03:52 -73.04,-104.80 84.99 2.10 15
17 12/02/2024 07:53:29 73.04, 62.94 95.02 12/02/2024 07:53:17 73.05, 62.88 95.03 2.90 12
18 12/02/2024 08:42:50 -73.07,-129.45 84.95 12/02/2024 08:42:45 -73.04,-129.51 84.98 3.37 5
19 12/02/2024 09:32:12 73.06, 38.22 95.05 12/02/2024 09:32:10 73.06, 38.16 95.05 1.90 2
20 12/02/2024 10:21:33 -73.09,-154.18 84.92 12/02/2024 10:21:37 -73.10,-154.12 84.91 1.86 4
21 12/02/2024 11:10:55 73.08, 13.50 95.08 12/02/2024 11:11:03 73.06, 13.44 95.06 3.14 8
22 12/02/2024 12:00:16 -73.11,-178.90 84.89 12/02/2024 12:00:30 -73.10,-178.84 84.90 2.50 14
23 12/02/2024 12:49:38 73.10, -11.23 95.11 12/02/2024 12:49:55 73.11, -11.17 95.12 2.10 17
24 12/02/2024 13:38:57 -73.08, 156.48 84.91 12/02/2024 13:39:22 -73.10, 156.44 84.89 2.30 25
25 12/02/2024 14:28:20 73.13, -35.95 95.15 12/02/2024 14:28:47 73.11, -35.88 95.14 2.61 27
26 12/02/2024 15:17:40 -73.11, 131.76 84.88 12/02/2024 15:18:15 -73.10, 131.72 84.88 1.25 35
27 12/02/2024 16:07:02 73.10, -60.57 95.13 12/02/2024 16:07:40 73.12, -60.60 95.15 2.24 38
28 12/02/2024 16:56:23 -73.13, 107.04 84.84 12/02/2024 16:57:08 -73.10, 107.01 84.87 3.04 45
29 12/02/2024 17:45:45 73.12, -85.29 95.16 12/02/2024 17:46:33 73.12, -85.32 95.16 1.04 48
30 12/02/2024 18:35:06 -73.15, 82.31 84.81 12/02/2024 18:36:00 -73.16, 82.40 84.80 2.73 54
31 12/02/2024 19:24:28 73.14,-110.01 95.19 12/02/2024 19:25:26 73.12,-110.04 95.17 2.99 58
32 12/02/2024 20:13:49 -73.18, 57.59 84.78 12/02/2024 20:14:53 -73.16, 57.68 84.79 3.44 64
33 12/02/2024 21:03:11 73.17,-134.74 95.22 12/02/2024 21:04:18 73.17,-134.65 95.24 2.98 67
34 12/02/2024 21:52:33 -73.25, 32.76 84.70 12/02/2024 21:53:45 -73.21, 33.07 84.72 10.85 72
35 12/02/2024 22:41:58 73.40,-159.90 95.46 12/02/2024 22:43:08 73.33,-159.04 95.41 28.39 70
36 12/02/2024 23:31:23 -73.64, 7.26 84.31 12/02/2024 23:32:31 -73.58, 9.11 84.33 58.62 68
37 12/03/2024 00:20:48 73.79, 174.58 95.85 12/03/2024 00:21:54 73.70, 177.02 95.81 76.45 66



Historial Predications of SNOs between AURA and LANDSAT-8
